Terminal Aerodrome Forecast
Issued by NWS Aberdeen, SD

Home | Current Version | Previous Version | Text Only | Print | Product List | Glossary On
Versions: 1 2 3 4 5 6 7 8 9 10 11 12 13 14 15 16 17 18 19 20 21 22 23 24 25 26 27 28 29 30 31 32 33 34 35 36 37
000
FTAK31 PAFA 200537
TAFABR
TAF
PABR 200537Z 2006/2106 04010KT P6SM SCT025
     FM201100 07010KT 4SM BR FEW008 OVC025
     FM202100 08011KT P6SM BCFG BKN025=

USA.gov is the U.S. government's official web portal to all federal, state and local government web resources and services.